Location: Clarion
(42.7316°N, 93.7330°W)
Time: 01:28:54
(UTC+00:00)

Cosmos 1354 Rocket - Pass Details

Date: 22 April 2026
Orbit: 760 x 779 km, 74.0° (Epoch: 20 May)

Event Time Altitude Azimuth Distance (km) Brightness Sun altitude
Rises 09:08:51 0° 337° (NNW) 3,258 7.5 -21.9°
Reaches altitude 10° 09:11:15 10° 334° (NNW) 2,324 6.7 -21.6°
Maximum altitude 09:16:28 65° 254° (WSW) 843 3.9 -20.9°
Enters shadow 09:18:59 30° 182° (S) 1,337 4.9 -20.6°
